EW0890 Weather Reports


time (UTC)temp
F
wind
direction
speed
knots
gust
knots
rain 1hr
in
rain 24hr
in
rain mn
in
humidity
%
barometer
mb
20260508132505 55 209 9.6 13.9 0.00 0.04 0.00 76 1010.8
20260508130024 53 161 7.0 9.6 0.00 0.04 0.00 79 1011.0
20260508125507 53 157 6.1 7.8 0.00 0.04 0.00 80 1011.1
20260508125008 53 166 6.1 7.8 0.00 0.04 0.00 80 1011.1
20260508124523 53 154 6.1 7.8 0.00 0.04 0.00 81 1011.2
20260508124009 52 145 5.2 7.0 0.00 0.04 0.00 82 1011.2
20260508123510 52 146 5.2 7.0 0.00 0.04 0.00 82 1011.3
20260508123010 52 172 4.3 6.1 0.00 0.04 0.00 82 1011.3
20260508122503 51 159 4.3 5.2 0.00 0.04 0.00 84 1011.3
20260508122006 51 162 2.6 5.2 0.00 0.04 0.00 85 1011.4
20260508121006 50 154 0.9 1.7 0.00 0.04 0.00 86 1011.4
20260508120507 50 130 0.9 2.6 0.00 0.04 0.00 85 1011.4
20260508120017 50 141 0.9 4.3 0.00 0.04 0.00 85 1011.3
20260508115509 50 113 1.7 7.0 0.00 0.04 0.00 85 1011.0
20260508114521 50 169 4.3 7.0 0.00 0.04 0.00 85 1010.9
20260508114008 49 141 4.3 7.0 0.00 0.04 0.00 86 1010.9
20260508113507 49 159 4.3 7.0 0.00 0.04 0.00 87 1010.8
20260508113025 49 165 5.2 7.8 0.00 0.04 0.00 87 1010.9
20260508112508 48 167 6.1 7.8 0.00 0.04 0.00 87 1010.8
20260508112010 48 164 6.1 7.8 0.00 0.04 0.00 87 1010.8
20260508111514 48 167 5.2 7.0 0.00 0.04 0.00 87 1010.7
20260508111005 48 162 5.2 6.1 0.00 0.04 0.00 87 1010.9
20260508110505 48 166 4.3 5.2 0.00 0.04 0.00 86 1010.8
20260508110017 49 167 3.5 7.0 0.00 0.04 0.00 85 1010.8
20260508105506 49 164 3.5 7.0 0.00 0.04 0.00 84 1010.9
20260508105009 49 159 4.3 7.0 0.00 0.04 0.00 84 1010.8
20260508104522 49 153 4.3 7.0 0.00 0.04 0.00 85 1010.9
20260508104011 49 166 4.3 6.1 0.00 0.04 0.00 85 1010.9
20260508103507 49 171 2.6 4.3 0.00 0.04 0.00 84 1010.9
20260508102511 49 116 1.7 5.2 0.00 0.04 0.00 84 1010.9
20260508102003 50 148 2.6 5.2 0.00 0.04 0.00 84 1010.9
20260508101510 50 162 3.5 5.2 0.00 0.04 0.00 84 1010.9
20260508101004 49 146 3.5 5.2 0.00 0.04 0.00 84 1010.9
20260508100505 49 121 1.7 4.3 0.00 0.04 0.00 86 1011.0
20260508100018 49 126 1.7 4.3 0.00 0.04 0.00 87 1011.0
20260508095503 49 132 2.6 3.5 0.00 0.04 0.00 87 1011.1
20260508095002 49 105 1.7 3.5 0.00 0.04 0.00 87 1011.1
20260508094008 48 140 1.7 2.6 0.00 0.04 0.00 88 1011.2
20260508093507 49 110 0.0 3.5 0.00 0.04 0.00 87 1011.3
20260508092507 49 120 2.6 5.2 0.00 0.04 0.00 86 1011.1
20260508092010 49 141 2.6 5.2 0.00 0.04 0.00 87 1011.1
20260508091527 48 156 3.5 5.2 0.00 0.04 0.00 88 1011.0
20260508091004 48 138 2.6 4.3 0.00 0.04 0.00 88 1011.1
20260508090504 48 115 2.6 2.6 0.00 0.04 0.00 88 1011.2
20260508090009 48 127 2.6 2.6 0.00 0.04 0.00 88 1011.3
20260508085502 48 120 1.7 2.6 0.00 0.04 0.00 88 1011.3
20260508085004 48 125 1.7 1.7 0.00 0.04 0.00 86 1011.4
20260508084512 49 261 0.0 0.0 0.00 0.04 0.00 86 1011.4
20260508084004 49 261 0.0 0.0 0.00 0.04 0.00 87 1011.5
20260508083507 49 261 0.0 0.0 0.00 0.04 0.00 86 1011.5
20260508083019 49 261 0.0 0.0 0.00 0.04 0.00 85 1011.5
20260508082508 49 261 0.0 0.0 0.00 0.04 0.00 85 1011.5
20260508082008 49 261 0.0 0.9 0.00 0.04 0.00 85 1011.5
20260508081529 50 355 0.0 1.7 0.00 0.04 0.00 84 1011.6
20260508081009 50 355 0.0 3.5 0.00 0.04 0.00 83 1011.6
20260508080517 50 289 1.7 5.2 0.00 0.04 0.00 82 1011.5
20260508080026 51 292 0.9 9.6 0.00 0.04 0.00 83 1011.7
20260508075504 50 305 1.7 9.6 0.00 0.04 0.00 82 1011.6
20260508075003 50 79 4.3 9.6 0.00 0.04 0.00 85 1011.6
20260508074510 50 312 3.5 7.0 0.00 0.04 0.00 84 1011.6
20260508074003 50 202 5.2 7.8 0.00 0.04 0.00 85 1011.1
20260508073016 49 207 5.2 7.0 0.00 0.04 0.00 86 1011.2
20260508072503 49 200 5.2 7.0 0.00 0.04 0.00 87 1011.2
20260508072007 49 205 4.3 7.8 0.00 0.04 0.00 87 1011.2
20260508071527 49 185 6.1 7.8 0.00 0.04 0.00 87 1011.2
20260508070507 49 193 5.2 8.7 0.00 0.04 0.00 86 1011.2
20260508070027 50 209 5.2 8.7 0.00 0.04 0.00 86 1011.2
20260508065508 50 207 6.1 8.7 0.00 0.04 0.00 86 1011.2
20260508064526 50 214 6.1 8.7 0.00 0.04 0.00 86 1011.4
20260508063505 49 212 6.1 7.8 0.00 0.04 0.00 88 1011.4
20260508063012 49 200 4.3 7.8 0.00 0.04 0.00 88 1011.5
20260508062507 49 186 6.1 8.7 0.00 0.04 0.00 88 1011.5
20260508062004 49 175 6.1 8.7 0.00 0.04 0.00 89 1011.6
20260508061522 49 191 6.1 7.8 0.00 0.04 0.00 89 1011.6
20260508061008 48 167 5.2 7.8 0.00 0.04 0.00 89 1011.6
20260508060508 48 170 5.2 7.0 0.00 0.04 0.00 90 1011.7
20260508060026 48 174 4.3 6.1 0.00 0.04 0.00 90 1011.7
20260508055508 48 173 4.3 5.2 0.00 0.04 0.00 90 1011.8
20260508054524 48 182 3.5 4.3 0.00 0.04 0.00 90 1011.9
20260508053030 49 177 4.3 5.2 0.00 0.04 0.00 89 1011.9
20260508052505 49 203 4.3 5.2 0.00 0.04 0.00 89 1012.0
20260508051521 49 209 4.3 6.1 0.00 0.04 0.00 88 1011.9
20260508050508 50 185 5.2 7.0 0.02 0.04 0.00 88 1011.9
20260508050020 50 192 6.1 7.0 0.02 0.04 0.00 88 1012.0
20260508045506 49 212 4.3 6.1 0.02 0.04 0.04 89 1012.1
20260508044523 49 231 2.6 2.6 0.02 0.04 0.04 89 1012.3
20260508043512 50 205 1.7 2.6 0.02 0.04 0.04 89 1012.4
20260508043023 50 236 0.0 3.5 0.02 0.04 0.04 89 1012.5
20260508042009 51 287 2.6 8.7 0.02 0.04 0.04 88 1012.6
20260508041526 51 254 6.1 9.6 0.02 0.04 0.04 88 1012.5
20260508040504 51 267 5.2 6.1 0.00 0.02 0.02 87 1012.7
20260508040015 51 229 4.3 5.2 0.00 0.02 0.02 87 1012.2
20260508035507 50 210 4.3 5.2 0.00 0.02 0.02 87 1012.0
20260508034519 50 201 2.6 4.3 0.00 0.02 0.02 87 1011.9
20260508033514 50 209 3.5 5.2 0.00 0.02 0.02 86 1011.9
20260508033026 51 174 1.7 3.5 0.00 0.02 0.02 85 1012.1
20260508031527 52 212 2.6 8.7 0.00 0.02 0.02 83 1012.3
20260508031010 52 221 4.3 8.7 0.00 0.02 0.02 81 1012.4
20260508030027 52 231 6.1 13.0 0.00 0.02 0.02 81 1012.7
20260508024516 51 198 7.8 12.2 0.00 0.02 0.02 81 1011.9
20260508022507 51 209 7.0 8.7 0.00 0.02 0.02 83 1012.0
20260508014527 51 214 7.8 9.6 0.00 0.02 0.02 80 1011.6
20260508003028 55 214 7.8 13.0 0.00 0.02 0.02 71 1011.3
20260508002009 55 212 9.6 13.0 0.00 0.02 0.02 72 1011.2
20260507235508 57 229 9.6 15.6 0.00 0.02 0.02 65 1011.4
20260507235010 58 234 11.3 15.6 0.00 0.02 0.02 64 1011.5
20260507234525 58 228 12.2 15.6 0.00 0.02 0.02 62 1011.5
20260507234010 58 246 11.3 14.8 0.00 0.02 0.02 62 1011.6
20260507233516 58 246 11.3 13.9 0.00 0.02 0.02 60 1011.6
20260507233009 59 252 11.3 14.8 0.00 0.02 0.02 57 1011.6
20260507232007 59 249 12.2 18.2 0.00 0.02 0.02 60 1011.7
20260507231530 60 268 13.0 18.2 0.00 0.02 0.02 57 1011.6
20260507231006 60 256 13.9 18.2 0.00 0.02 0.02 56 1011.5
20260507230509 60 272 14.8 20.9 0.00 0.02 0.02 55 1011.5
20260507230023 59 254 13.9 20.9 0.00 0.02 0.02 56 1011.5
20260507225507 60 255 13.9 19.1 0.00 0.02 0.02 55 1011.6
20260507224004 60 245 11.3 16.5 0.00 0.02 0.02 54 1011.4
20260507223503 60 250 13.0 16.5 0.00 0.02 0.02 52 1011.4
20260507223011 60 242 11.3 14.8 0.00 0.02 0.02 53 1011.8
20260507222506 61 245 10.4 13.0 0.00 0.02 0.02 52 1011.8
20260507222003 61 255 8.7 12.2 0.00 0.02 0.02 54 1011.8
20260507221515 60 253 8.7 12.2 0.00 0.02 0.02 55 1011.7
20260507221008 60 253 9.6 14.8 0.00 0.02 0.02 53 1011.7
20260507220506 60 247 8.7 14.8 0.00 0.02 0.02 55 1011.8
20260507220021 60 257 11.3 16.5 0.00 0.02 0.02 54 1011.8
20260507215507 60 251 11.3 16.5 0.00 0.02 0.02 55 1011.9
20260507215008 60 273 13.0 15.6 0.00 0.02 0.02 54 1011.8
20260507214521 60 264 12.2 15.6 0.00 0.02 0.02 55 1011.8
20260507214009 59 269 11.3 15.6 0.00 0.02 0.02 59 1011.8
20260507213006 58 256 10.4 13.9 0.00 0.02 0.02 61 1012.0
20260507212504 58 262 10.4 13.9 0.00 0.02 0.02 61 1012.0
20260507212003 58 267 10.4 14.8 0.00 0.02 0.02 63 1012.4
20260507211004 58 268 12.2 19.1 0.00 0.02 0.02 60 1012.2
20260507210509 58 265 16.5 19.1 0.00 0.02 0.02 56 1012.2
20260507205507 59 266 12.2 18.2 0.00 0.02 0.02 62 1012.1
20260507205006 58 271 13.9 18.2 0.00 0.02 0.02 59 1012.0
20260507204007 58 250 10.4 13.9 0.01 0.02 0.02 62 1012.1
20260507203505 58 246 9.6 12.2 0.01 0.02 0.02 64 1012.1
20260507203025 57 257 10.4 12.2 0.02 0.02 0.02 69 1012.1
20260507202503 56 254 9.6 12.2 0.02 0.02 0.02 69 1012.1
20260507202003 54 220 7.8 10.4 0.02 0.02 0.02 73 1012.3
20260507201509 54 247 6.1 11.3 0.02 0.02 0.02 78 1012.7
20260507201004 54 259 8.7 13.9 0.02 0.02 0.02 76 1013.1
20260507200504 53 264 10.4 13.9 0.02 0.02 0.02 74 1013.2
20260507195504 52 270 8.7 16.5 0.02 0.02 0.02 78 1013.4
20260507195006 52 285 10.4 16.5 0.02 0.02 0.02 77 1013.6
20260507194519 52 266 8.7 16.5 0.02 0.02 0.02 77 1014.0
20260507194006 52 325 2.6 5.2 0.01 0.01 0.01 78 1014.0
20260507193506 53 63 1.7 7.8 0.01 0.01 0.01 76 1013.9
20260507192508 55 323 3.5 6.1 0.00 0.00 0.00 66 1013.7
20260507192011 55 327 0.9 4.3 0.00 0.00 0.00 67 1013.2
20260507191526 55 291 0.9 23.5 0.00 0.00 0.00 64 1012.9
20260507191004 56 352 1.7 32.2 0.00 0.00 0.00 61 1013.2
20260507190504 57 274 19.1 32.2 0.00 0.00 0.00 52 1013.4
20260507185503 61 279 10.4 19.1 0.00 0.00 0.00 41 1012.6
20260507185005 61 266 14.8 19.1 0.00 0.00 0.00 40 1012.4
20260507184006 61 257 15.6 21.7 0.00 0.00 0.00 39 1012.3
20260507183504 61 269 17.4 21.7 0.00 0.00 0.00 40 1012.3
20260507183032 61 259 13.9 20.9 0.00 0.00 0.00 41 1012.4
20260507182505 61 251 13.9 20.9 0.00 0.00 0.00 40 1012.4
20260507182009 62 251 14.8 20.9 0.00 0.00 0.00 39 1012.4
20260507181520 61 269 13.0 17.4 0.00 0.00 0.00 41 1012.5
20260507181013 62 269 13.0 24.3 0.00 0.00 0.00 38 1012.7
20260507180507 62 274 13.9 24.3 0.00 0.00 0.00 38 1012.7
20260507180036 63 249 14.8 19.1 0.00 0.00 0.00 37 1012.8
20260507175507 62 223 13.9 21.7 0.00 0.00 0.00 37 1012.9
20260507175004 62 256 14.8 21.7 0.00 0.00 0.00 38 1013.0
20260507174511 62 218 14.8 21.7 0.00 0.00 0.00 36 1013.1
20260507174004 62 255 16.5 21.7 0.00 0.00 0.00 37 1013.3
20260507173505 61 258 11.3 21.7 0.00 0.00 0.00 38 1013.3
20260507173016 60 251 13.9 21.7 0.00 0.00 0.00 41 1013.4
20260507172506 60 260 15.6 22.6 0.00 0.00 0.00 41 1013.4
20260507172008 61 229 16.5 22.6 0.00 0.00 0.00 38 1013.5
20260507171520 60 259 13.0 21.7 0.00 0.00 0.00 37 1013.7
20260507171007 60 229 13.9 20.9 0.00 0.00 0.00 37 1013.9
20260507170507 60 240 15.6 20.0 0.00 0.00 0.00 38 1013.8
20260507170024 60 229 13.9 18.2 0.00 0.00 0.00 39 1013.8
20260507165506 60 261 13.0 20.0 0.00 0.00 0.00 37 1013.9
20260507165008 60 232 16.5 20.0 0.00 0.00 0.00 37 1013.9
20260507164524 61 225 12.2 20.0 0.00 0.00 0.00 36 1014.0
20260507164004 60 238 12.2 20.9 0.00 0.00 0.00 38 1014.1
20260507163505 60 248 14.8 20.9 0.00 0.00 0.00 37 1014.2
20260507163012 59 238 12.2 20.0 0.00 0.00 0.00 40 1014.3
20260507162506 59 259 13.0 20.0 0.00 0.00 0.00 37 1014.4
20260507162005 59 255 13.9 20.0 0.00 0.00 0.00 37 1014.5
20260507161533 60 250 13.9 20.0 0.00 0.00 0.00 36 1014.4
20260507161008 59 245 13.9 19.1 0.00 0.00 0.00 39 1014.4
20260507160509 59 250 10.4 19.1 0.00 0.00 0.00 40 1014.4
20260507160033 59 225 13.0 18.2 0.00 0.00 0.00 41 1014.5
20260507155507 58 240 12.2 20.0 0.00 0.00 0.00 41 1014.7
20260507155010 58 257 12.2 20.0 0.00 0.00 0.00 42 1014.7
20260507154532 58 252 13.9 20.0 0.00 0.00 0.00 41 1014.9
20260507154010 58 252 13.9 19.1 0.00 0.00 0.00 40 1014.9
20260507153508 58 252 11.3 19.1 0.00 0.00 0.00 43 1014.9
20260507153026 57 245 13.9 24.3 0.00 0.00 0.00 44 1015.0
20260507152506 56 259 13.9 24.3 0.00 0.00 0.00 42 1015.2
20260507152004 56 258 10.4 17.4 0.00 0.00 0.00 42 1015.2
20260507151532 56 264 12.2 18.2 0.00 0.00 0.00 44 1015.1
20260507151007 56 256 13.0 19.1 0.00 0.00 0.00 45 1015.1
20260507150504 56 264 11.3 19.1 0.00 0.00 0.00 45 1015.1
20260507150022 56 252 12.2 17.4 0.00 0.00 0.00 44 1015.1
20260507145507 56 241 13.0 17.4 0.00 0.00 0.00 42 1015.2
20260507145007 56 240 11.3 15.6 0.00 0.00 0.00 45 1015.2
20260507144521 55 269 11.3 15.6 0.00 0.00 0.00 45 1015.3
20260507144008 55 241 11.3 15.6 0.00 0.00 0.00 47 1015.3
20260507143507 55 233 11.3 13.9 0.00 0.00 0.00 48 1015.4
20260507143006 55 266 12.2 14.8 0.00 0.00 0.00 49 1015.4
20260507142504 54 243 10.4 14.8 0.00 0.00 0.00 50 1015.5
20260507142005 54 243 10.4 13.9 0.00 0.00 0.00 51 1015.5
20260507141512 53 235 11.3 14.8 0.00 0.00 0.00 52 1015.6
20260507141007 53 252 11.3 14.8 0.00 0.00 0.00 50 1015.7
20260507140505 53 231 10.4 13.9 0.00 0.00 0.00 50 1015.6
20260507140019 53 228 9.6 13.9 0.00 0.00 0.00 50 1015.6
20260507135508 53 222 9.6 13.0 0.00 0.00 0.00 55 1015.6
20260507135009 52 227 7.8 12.2 0.00 0.00 0.00 55 1015.7
20260507134529 52 219 8.7 12.2 0.00 0.00 0.00 56 1015.8
20260507134007 52 235 7.8 11.3 0.00 0.00 0.00 53 1015.9
20260507133510 51 251 7.8 10.4 0.00 0.00 0.00 54 1015.8
20260507133022 51 225 7.8 9.6 0.00 0.00 0.00 56 1015.8